Location: Foxtrotter Observatory
(29.3381°N, 82.2844°W)
Time: 01:40:13
(UTC-05:00)

ISS - Visible Passes

Search period start: 21 November 2017 00:00
Search period end: 01 December 2017 00:00
Orbit: 402 x 407 km, 51.6° (Epoch: 21 November)

Date Brightness Start Highest point End Pass type
(mag) Time Alt. Az. Time Alt. Az. Time Alt. Az.
21 Nov -0.8 04:45:57 16° ESE 04:45:57 16° ESE 04:46:42 10° ESE visible
22 Nov -1.4 05:29:10 13° SSW 05:29:10 13° SSW 05:29:50 10° S visible
22 Nov -1.4 18:48:28 10° SSE 18:49:13 13° SSE 18:49:13 13° SSE visible
23 Nov -1.5 19:30:57 10° SW 19:32:21 23° SW 19:32:21 23° SW visible
24 Nov -3.4 18:38:50 10° SSW 18:41:58 43° SE 18:42:43 36° E visible
25 Nov -1.7 19:23:21 10° W 19:25:39 24° NW 19:25:39 24° NW visible
26 Nov -3.2 18:30:30 10° WSW 18:33:43 53° NW 18:35:49 19° NNE visible
27 Nov -0.9 19:17:11 10° NW 19:18:07 11° NW 19:18:33 11° NNW visible
28 Nov -1.6 18:23:05 10° W 18:25:33 20° NW 18:28:03 10° N visible
